Back to catalog

STARLINK-5193

AliveCommunicationsVLEO
NORAD 54095·PAYLOAD·🇺🇸 United States

Launched Oct 20, 2022 from Cape Canaveral Space Force Station

Loading…

Next Passes (next 24 hours)

TLE

FreshSource: CelesTrak SupGP

Epoch: Sep 14, 2026, 21:26 UTC

1 54095C 22136AW  26257.89354167  .00542220  00000+0  29595-1 0  2574
2 54095  53.1594 203.7323 0001482  94.0815 241.2858 15.13569251    13

Track STARLINK-5193 in real time with AllMySat

Download on the App Store